WE8M Weather Reports


time (UTC)temp
C
wind
direction
speed
KPH
gust
KPH
rain 1hr
cm
rain 24hr
cm
rain mn
cm
humidity
%
barometer
mb
20260903055932 23 220 0.0 1.6 0.00 0.00 0.00 84 1017.7
20260903055431 23 220 1.6 1.6 0.00 0.00 0.00 85 1017.7
20260903054930 23 220 0.0 1.6 0.00 0.00 0.00 85 1017.7
20260903054425 23 220 0.0 1.6 0.00 0.00 0.00 85 1017.5
20260903053921 23 220 1.6 1.6 0.00 0.00 0.00 85 1017.6
20260903053421 23 220 0.0 1.6 0.00 0.00 0.00 85 1017.7
20260903052918 23 220 1.6 1.6 0.00 0.00 0.00 86 1017.6
20260903052414 23 220 1.6 1.6 0.00 0.00 0.00 87 1017.7
20260903051909 23 220 0.0 1.6 0.00 0.00 0.00 86 1017.5
20260903051404 23 220 0.0 1.6 0.00 0.00 0.00 86 1017.7
20260903050859 23 220 0.0 0.0 0.00 0.00 0.00 86 1017.6
20260903050358 24 220 0.0 1.6 0.00 0.00 0.00 85 1017.6
20260903045853 24 220 0.0 1.6 0.00 0.00 0.00 84 1017.4
20260903045349 24 220 0.0 1.6 0.00 0.00 0.00 84 1017.6
20260903044846 24 220 0.0 1.6 0.00 0.00 0.00 84 1017.5
20260903044345 24 220 0.0 1.6 0.00 0.00 0.00 85 1017.5
20260903043842 23 220 0.0 1.6 0.00 0.00 0.00 85 1017.4
20260903043337 24 220 0.0 0.0 0.00 0.00 0.00 86 1017.3
20260903042835 24 220 0.0 0.0 0.00 0.00 0.00 84 1017.2
20260903042331 24 220 0.0 1.6 0.00 0.00 0.00 84 1017.1
20260903041827 24 220 1.6 1.6 0.00 0.00 0.00 84 1017.3
20260903041323 24 220 0.0 1.6 0.00 0.00 0.00 84 1017.5
20260903040819 24 220 1.6 1.6 0.00 0.00 0.00 83 1017.3
20260903040317 24 220 0.0 0.0 0.00 0.00 0.00 83 1017.3
20260903035814 24 220 0.0 1.6 0.00 0.00 0.00 83 1017.2
20260903035309 24 220 0.0 1.6 0.00 0.00 0.00 82 1017.5
20260903034804 25 220 0.0 1.6 0.00 0.00 0.00 83 1017.3
20260903034259 25 222 0.0 1.6 0.00 0.00 0.00 82 1017.4
20260903033756 24 222 0.0 1.6 0.00 0.00 0.00 82 1017.3
20260903033244 24 222 0.0 1.6 0.00 0.00 0.00 83 1017.5
20260903032744 24 222 1.6 1.6 0.00 0.00 0.00 83 1017.4
20260903032240 24 222 0.0 1.6 0.00 0.00 0.00 82 1017.6
20260903031736 24 223 0.0 1.6 0.00 0.00 0.00 83 1017.5
20260903031234 24 223 0.0 1.6 0.00 0.00 0.00 84 1017.8
20260903030731 24 222 0.0 1.6 0.00 0.00 0.00 84 1017.8
20260903030227 24 222 0.0 1.6 0.00 0.00 0.00 84 1017.6
20260903025722 25 222 0.0 0.0 0.00 0.00 0.00 83 1017.7
20260903025218 25 222 0.0 1.6 0.00 0.00 0.00 82 1017.9
20260903024717 25 222 0.0 0.0 0.00 0.00 0.00 82 1017.9
20260903024216 24 222 0.0 1.6 0.00 0.00 0.00 84 1017.7
20260903023712 24 223 0.0 0.0 0.00 0.00 0.00 84 1017.8
20260903023208 24 222 0.0 0.0 0.00 0.00 0.00 84 1017.8
20260903022707 24 222 0.0 0.0 0.00 0.00 0.00 83 1017.8
20260903022207 25 222 0.0 0.0 0.00 0.00 0.00 83 1018.0
20260903021707 25 222 0.0 1.6 0.00 0.00 0.00 83 1017.9
20260903021202 24 223 0.0 1.6 0.00 0.00 0.00 84 1018.1
20260903020657 24 223 0.0 0.0 0.00 0.00 0.00 85 1018.0
20260903020156 24 223 0.0 0.0 0.00 0.00 0.00 84 1017.8
20260903015652 24 223 0.0 0.0 0.00 0.00 0.00 84 1018.1
20260903015148 25 222 0.0 0.0 0.00 0.00 0.00 84 1018.0
20260903014642 25 223 0.0 0.0 0.00 0.00 0.00 84 1018.0
20260903014142 25 223 0.0 0.0 0.00 0.00 0.00 82 1017.8
20260903013636 25 223 0.0 0.0 0.00 0.00 0.00 82 1017.8
20260903013136 25 222 0.0 0.0 0.00 0.00 0.00 80 1017.8
20260903012635 25 222 0.0 0.0 0.00 0.00 0.00 78 1017.8
20260903012134 26 222 0.0 0.0 0.00 0.00 0.00 78 1017.7
20260903011629 26 222 0.0 0.0 0.00 0.00 0.00 77 1017.5
20260903011129 26 223 0.0 1.6 0.00 0.00 0.00 76 1017.5
20260903010624 26 223 0.0 0.0 0.00 0.00 0.00 76 1017.4
20260903010123 26 223 1.6 1.6 0.00 0.00 0.00 76 1017.5
20260903005618 26 223 1.6 1.6 0.00 0.00 0.00 76 1017.5
20260903005114 26 223 1.6 1.6 0.00 0.00 0.00 76 1017.4
20260903004613 26 223 1.6 1.6 0.00 0.00 0.00 76 1017.3
20260903004109 26 223 0.0 1.6 0.00 0.00 0.00 79 1017.3
20260903003604 26 223 0.0 0.0 0.00 0.00 0.00 79 1017.0
20260903003059 26 223 0.0 0.0 0.00 0.00 0.00 78 1017.2
20260903002554 26 223 0.0 0.0 0.00 0.00 0.00 76 1017.3
20260903002048 26 223 0.0 0.0 0.00 0.00 0.00 77 1017.2
20260903001543 27 223 0.0 0.0 0.00 0.00 0.00 76 1017.3
20260903001043 27 223 0.0 1.6 0.00 0.00 0.00 75 1017.3
20260903000538 27 223 0.0 0.0 0.00 0.00 0.00 76 1017.1
20260903000032 27 223 0.0 0.0 0.00 0.00 0.00 74 1017.3
20260902235531 28 223 0.0 0.0 0.00 0.00 0.00 74 1017.2
20260902235027 28 223 0.0 1.6 0.00 0.00 0.00 72 1017.0
20260902234526 28 223 0.0 0.0 0.00 0.00 0.00 71 1017.3
20260902234025 28 223 0.0 1.6 0.00 0.00 0.00 70 1017.0
20260902233520 28 226 0.0 0.0 0.00 0.00 0.00 71 1017.1
20260902233014 28 226 0.0 1.6 0.00 0.00 0.00 74 1017.2
20260902232514 29 226 0.0 1.6 0.00 0.00 0.00 71 1017.5
20260902232003 29 226 0.0 0.0 0.00 0.00 0.00 76 1017.4
20260902231457 29 226 0.0 0.0 0.00 0.00 0.00 72 1017.2
20260902230952 30 226 0.0 0.0 0.00 0.00 0.00 73 1017.1
20260902230451 30 227 0.0 0.0 0.00 0.00 0.00 69 1017.3
20260902225950 31 224 0.0 0.0 0.00 0.00 0.00 66 1017.4
20260902225446 31 218 0.0 0.0 0.00 0.00 0.00 70 1017.3
20260902224945 31 218 0.0 1.6 0.00 0.00 0.00 67 1017.3
20260902224444 31 218 0.0 1.6 0.00 0.00 0.00 63 1017.2
20260902223941 32 220 0.0 1.6 0.00 0.00 0.00 65 1017.2
20260902223436 32 240 0.0 0.0 0.00 0.00 0.00 65 1017.5
20260902222936 32 241 0.0 1.6 0.00 0.00 0.00 64 1017.4
20260902222435 32 203 0.0 1.6 0.00 0.00 0.00 61 1017.4
20260902221934 33 211 0.0 1.6 0.00 0.00 0.00 58 1017.3
20260902221433 33 184 0.0 1.6 0.00 0.00 0.00 56 1017.1
20260902220929 34 221 1.6 1.6 0.00 0.00 0.00 56 1017.3
20260902220429 35 201 1.6 1.6 0.00 0.00 0.00 53 1017.2
20260902215924 35 148 0.0 0.0 0.00 0.00 0.00 55 1017.4
20260902215420 35 252 0.0 1.6 0.00 0.00 0.00 56 1017.5
20260902214916 35 307 3.2 4.8 0.00 0.00 0.00 54 1017.5
20260902214415 35 255 0.0 1.6 0.00 0.00 0.00 51 1017.5
20260902213915 35 295 0.0 1.6 0.00 0.00 0.00 51 1017.5
20260902213411 35 252 0.0 3.2 0.00 0.00 0.00 55 1017.6
20260902212909 35 235 0.0 3.2 0.00 0.00 0.00 49 1017.4
20260902212406 36 247 0.0 1.6 0.00 0.00 0.00 51 1017.5
20260902211902 35 309 3.2 3.2 0.00 0.00 0.00 49 1017.5
20260902211358 35 258 0.0 1.6 0.00 0.00 0.00 57 1017.7
20260902210853 33 260 1.6 1.6 0.00 0.00 0.00 54 1017.7
20260902210352 33 236 0.0 1.6 0.00 0.00 0.00 54 1017.7
20260902205851 35 212 0.0 1.6 0.00 0.00 0.00 53 1017.6
20260902205346 36 285 4.8 4.8 0.00 0.00 0.00 47 1017.6
20260902204842 36 181 1.6 3.2 0.00 0.00 0.00 47 1017.5
20260902204341 36 260 1.6 3.2 0.00 0.00 0.00 47 1017.7
20260902203837 36 191 3.2 4.8 0.00 0.00 0.00 49 1017.7
20260902203332 36 233 1.6 4.8 0.00 0.00 0.00 49 1017.6
20260902202831 36 299 1.6 3.2 0.00 0.00 0.00 46 1017.7
20260902202328 36 286 1.6 6.4 0.00 0.00 0.00 51 1017.6
20260902201824 36 224 1.6 1.6 0.00 0.00 0.00 52 1017.7
20260902201324 36 166 4.8 6.4 0.00 0.00 0.00 49 1017.7
20260902200819 35 264 0.0 1.6 0.00 0.00 0.00 51 1017.8
20260902200314 35 298 3.2 6.4 0.00 0.00 0.00 50 1018.0
20260902195810 34 258 0.0 1.6 0.00 0.00 0.00 59 1018.0
20260902195308 35 281 0.0 1.6 0.00 0.00 0.00 55 1018.0
20260902194803 36 200 3.2 4.8 0.00 0.00 0.00 49 1017.9
20260902194258 36 290 3.2 3.2 0.00 0.00 0.00 46 1018.1
20260902193754 35 213 3.2 4.8 0.00 0.00 0.00 49 1018.2
20260902193249 35 307 1.6 3.2 0.00 0.00 0.00 49 1018.3
20260902192748 35 253 3.2 3.2 0.00 0.00 0.00 50 1018.3
20260902192247 36 281 0.0 4.8 0.00 0.00 0.00 48 1018.3
20260902191747 36 201 1.6 3.2 0.00 0.00 0.00 52 1018.5
20260902191242 36 181 1.6 4.8 0.00 0.00 0.00 51 1018.6
20260902190737 36 177 0.0 3.2 0.00 0.00 0.00 55 1018.5
20260902190237 36 191 1.6 4.8 0.00 0.00 0.00 53 1018.5
20260902185733 35 209 3.2 6.4 0.00 0.00 0.00 53 1018.6
20260902185228 35 131 3.2 9.7 0.00 0.00 0.00 50 1018.8
20260902184724 36 150 1.6 3.2 0.00 0.00 0.00 54 1018.5
20260902184219 36 234 0.0 1.6 0.00 0.00 0.00 55 1018.8
20260902183715 36 164 1.6 4.8 0.00 0.00 0.00 53 1018.7
20260902183211 36 258 1.6 4.8 0.00 0.00 0.00 54 1018.8
20260902182707 35 224 0.0 1.6 0.00 0.00 0.00 53 1018.9
20260902182203 35 163 3.2 6.4 0.00 0.00 0.00 52 1019.1
20260902181659 35 196 0.0 4.8 0.00 0.00 0.00 57 1018.9
20260902181200 35 162 0.0 9.7 0.00 0.00 0.00 55 1019.1
20260902180659 35 180 3.2 3.2 0.00 0.00 0.00 53 1019.3
20260902180155 35 145 3.2 11.3 0.00 0.00 0.00 56 1019.2
20260902175655 35 157 1.6 3.2 0.00 0.00 0.00 53 1019.1
20260902175151 35 197 4.8 9.7 0.00 0.00 0.00 54 1019.2
20260902174647 35 182 1.6 3.2 0.00 0.00 0.00 55 1019.2
20260902174143 35 197 3.2 4.8 0.00 0.00 0.00 54 1019.4
20260902173637 35 277 1.6 3.2 0.00 0.00 0.00 53 1019.4
20260902173133 35 193 3.2 6.4 0.00 0.00 0.00 54 1019.3
20260902172627 35 196 3.2 4.8 0.00 0.00 0.00 56 1019.5
20260902172126 35 187 1.6 3.2 0.00 0.00 0.00 58 1019.3
20260902171622 35 205 3.2 3.2 0.00 0.00 0.00 57 1019.5
20260902171118 35 314 1.6 4.8 0.00 0.00 0.00 53 1019.5
20260902170613 35 175 1.6 3.2 0.00 0.00 0.00 51 1019.3
20260902170109 35 228 0.0 1.6 0.00 0.00 0.00 55 1019.7
20260902165608 35 271 1.6 3.2 0.00 0.00 0.00 55 1019.7
20260902165103 35 247 0.0 9.7 0.00 0.00 0.00 58 1019.7
20260902164558 35 199 1.6 3.2 0.00 0.00 0.00 57 1019.9
20260902164056 35 167 1.6 4.8 0.00 0.00 0.00 55 1019.8
20260902163553 34 206 1.6 4.8 0.00 0.00 0.00 57 1020.0
20260902163051 34 268 1.6 3.2 0.00 0.00 0.00 57 1019.8
20260902162545 34 186 3.2 6.4 0.00 0.00 0.00 54 1019.8
20260902162040 35 216 1.6 3.2 0.00 0.00 0.00 56 1020.0
20260902161540 35 214 1.6 1.6 0.00 0.00 0.00 57 1020.0
20260902161036 35 229 1.6 1.6 0.00 0.00 0.00 56 1020.0
20260902160532 35 177 3.2 6.4 0.00 0.00 0.00 52 1020.2
20260902160027 35 216 1.6 3.2 0.00 0.00 0.00 58 1020.0
20260902155520 35 247 0.0 1.6 0.00 0.00 0.00 57 1020.3
20260902155019 35 250 1.6 3.2 0.00 0.00 0.00 57 1020.2
20260902154515 35 222 1.6 1.6 0.00 0.00 0.00 57 1020.1
20260902154009 34 241 0.0 1.6 0.00 0.00 0.00 58 1020.2
20260902153507 34 227 1.6 1.6 0.00 0.00 0.00 58 1020.3
20260902153003 34 289 0.0 1.6 0.00 0.00 0.00 61 1020.2
20260902152500 33 295 0.0 1.6 0.00 0.00 0.00 57 1020.1
20260902151954 33 291 1.6 3.2 0.00 0.00 0.00 60 1020.2
20260902151451 33 236 0.0 1.6 0.00 0.00 0.00 58 1020.2
20260902150950 33 251 0.0 3.2 0.00 0.00 0.00 59 1020.0
20260902150446 33 247 0.0 1.6 0.00 0.00 0.00 59 1020.4
20260902145946 32 284 3.2 4.8 0.00 0.00 0.00 62 1020.3
20260902145441 32 250 0.0 1.6 0.00 0.00 0.00 63 1020.3
20260902144936 32 297 1.6 3.2 0.00 0.00 0.00 60 1020.2
20260902144432 32 229 1.6 3.2 0.00 0.00 0.00 65 1020.2
20260902143932 31 242 0.0 0.0 0.00 0.00 0.00 65 1020.3
20260902143427 31 218 1.6 6.4 0.00 0.00 0.00 66 1020.4
20260902142922 31 265 0.0 3.2 0.00 0.00 0.00 68 1020.3
20260902142419 31 272 1.6 1.6 0.00 0.00 0.00 69 1020.1
20260902141914 30 245 0.0 3.2 0.00 0.00 0.00 69 1020.2
20260902141409 30 233 1.6 3.2 0.00 0.00 0.00 70 1020.3
20260902140908 29 237 1.6 1.6 0.00 0.00 0.00 72 1020.1
20260902140404 29 273 0.0 1.6 0.00 0.00 0.00 73 1020.1
20260902135903 28 225 1.6 1.6 0.00 0.00 0.00 74 1020.1
20260902135400 28 194 0.0 1.6 0.00 0.00 0.00 73 1020.2
20260902134858 28 256 1.6 1.6 0.00 0.00 0.00 74 1020.0
20260902134358 28 233 0.0 1.6 0.00 0.00 0.00 75 1019.9
20260902133855 28 224 1.6 1.6 0.00 0.00 0.00 75 1019.8
20260902133354 27 196 0.0 3.2 0.00 0.00 0.00 78 1020.0
20260902132849 27 236 1.6 3.2 0.00 0.00 0.00 78 1019.9
20260902132345 27 216 1.6 3.2 0.00 0.00 0.00 78 1020.1
20260902131840 27 215 0.0 1.6 0.00 0.00 0.00 78 1020.1
20260902131337 27 200 0.0 0.0 0.00 0.00 0.00 78 1019.9
20260902130836 27 204 1.6 1.6 0.00 0.00 0.00 79 1020.1
20260902130332 27 198 1.6 3.2 0.00 0.00 0.00 77 1019.9
20260902125827 26 195 1.6 1.6 0.00 0.00 0.00 78 1020.0
20260902125323 26 188 1.6 3.2 0.00 0.00 0.00 80 1020.1
20260902124819 26 162 1.6 3.2 0.00 0.00 0.00 79 1019.6
20260902124315 25 195 1.6 3.2 0.00 0.00 0.00 80 1020.1
20260902123809 25 195 1.6 1.6 0.00 0.00 0.00 82 1019.9
20260902123306 25 193 1.6 3.2 0.00 0.00 0.00 82 1019.6
20260902122804 24 193 0.0 1.6 0.00 0.00 0.00 84 1020.0
20260902122300 24 193 0.0 1.6 0.00 0.00 0.00 84 1019.8
20260902121800 23 194 1.6 1.6 0.00 0.00 0.00 85 1019.7
20260902121255 23 199 0.0 3.2 0.00 0.00 0.00 86 1019.8
20260902120750 23 199 1.6 3.2 0.00 0.00 0.00 88 1019.6
20260902120247 22 199 0.0 1.6 0.00 0.00 0.00 90 1019.8
20260902115747 22 199 0.0 1.6 0.00 0.00 0.00 91 1019.7
20260902115243 22 200 0.0 1.6 0.00 0.00 0.00 92 1019.5
20260902114739 22 200 0.0 1.6 0.00 0.00 0.00 93 1019.6
20260902114235 21 200 0.0 1.6 0.00 0.00 0.00 94 1019.5
20260902113735 21 200 0.0 0.0 0.00 0.00 0.00 94 1019.2
20260902113231 21 199 0.0 0.0 0.00 0.00 0.00 94 1019.3
20260902112730 21 200 0.0 0.0 0.00 0.00 0.00 94 1019.3
20260902112228 21 200 0.0 0.0 0.00 0.00 0.00 95 1019.3
20260902111722 21 199 0.0 1.6 0.00 0.00 0.00 95 1019.5
20260902111219 21 200 0.0 0.0 0.00 0.00 0.00 95 1019.4
20260902110714 21 200 0.0 0.0 0.00 0.00 0.00 94 1019.1
20260902110210 21 200 0.0 0.0 0.00 0.00 0.00 94 1019.5
20260902105709 21 200 0.0 0.0 0.00 0.00 0.00 94 1019.5
20260902105205 21 200 0.0 0.0 0.00 0.00 0.00 93 1019.4
20260902104700 21 200 0.0 0.0 0.00 0.00 0.00 93 1019.4
20260902104156 21 200 0.0 0.0 0.00 0.00 0.00 92 1019.3
20260902103654 21 200 0.0 0.0 0.00 0.00 0.00 92 1019.5
20260902103150 21 200 0.0 0.0 0.00 0.00 0.00 92 1019.3
20260902102646 21 200 0.0 0.0 0.00 0.00 0.00 92 1019.3
20260902102143 21 200 0.0 1.6 0.00 0.00 0.00 92 1019.2
20260902101638 21 200 0.0 1.6 0.00 0.00 0.00 91 1019.1
20260902101138 22 200 0.0 0.0 0.00 0.00 0.00 90 1019.3
20260902100632 22 200 0.0 0.0 0.00 0.00 0.00 89 1019.1
20260902100127 22 200 0.0 0.0 0.00 0.00 0.00 89 1019.1
20260902095626 22 200 1.6 1.6 0.00 0.00 0.00 89 1019.1
20260902095126 22 199 0.0 1.6 0.00 0.00 0.00 89 1019.1
20260902094621 22 200 0.0 3.2 0.00 0.00 0.00 90 1019.1
20260902094118 22 200 0.0 1.6 0.00 0.00 0.00 90 1019.2
20260902093617 22 200 0.0 3.2 0.00 0.00 0.00 91 1019.3
20260902093113 22 200 0.0 1.6 0.00 0.00 0.00 91 1019.1
20260902092612 22 200 0.0 1.6 0.00 0.00 0.00 92 1019.1
20260902092108 22 201 0.0 1.6 0.00 0.00 0.00 93 1018.9
20260902091602 22 205 0.0 0.0 0.00 0.00 0.00 93 1018.8
20260902091058 22 205 0.0 0.0 0.00 0.00 0.00 92 1018.9
20260902090554 22 205 0.0 1.6 0.00 0.00 0.00 92 1018.8
20260902090054 21 205 1.6 1.6 0.00 0.00 0.00 92 1018.8
20260902085554 21 205 0.0 1.6 0.00 0.00 0.00 92 1018.8
20260902085049 21 205 0.0 0.0 0.00 0.00 0.00 91 1018.7
20260902084545 22 205 0.0 0.0 0.00 0.00 0.00 91 1018.6
20260902084041 22 205 0.0 0.0 0.00 0.00 0.00 90 1018.8
20260902083536 22 205 0.0 1.6 0.00 0.00 0.00 90 1018.6
20260902083036 22 206 0.0 0.0 0.00 0.00 0.00 89 1018.5
20260902082531 22 206 0.0 0.0 0.00 0.00 0.00 90 1018.5
20260902082028 22 206 1.6 1.6 0.00 0.00 0.00 90 1018.6
20260902081524 22 206 0.0 1.6 0.00 0.00 0.00 91 1018.6
20260902081024 22 206 1.6 1.6 0.00 0.00 0.00 92 1018.5
20260902080520 21 206 1.6 3.2 0.00 0.00 0.00 93 1018.3
20260902080016 21 237 0.0 0.0 0.00 0.00 0.00 93 1018.4
20260902075510 21 237 0.0 0.0 0.00 0.00 0.00 93 1018.5
20260902075006 21 237 0.0 0.0 0.00 0.00 0.00 92 1018.4
20260902074502 21 237 0.0 0.0 0.00 0.00 0.00 91 1018.4
20260902074001 21 237 0.0 0.0 0.00 0.00 0.00 90 1018.4
20260902073457 22 237 0.0 0.0 0.00 0.00 0.00 90 1018.3
20260902072954 22 237 0.0 0.0 0.00 0.00 0.00 90 1018.6
20260902072449 22 237 0.0 0.0 0.00 0.00 0.00 90 1018.4
20260902071945 22 237 0.0 0.0 0.00 0.00 0.00 89 1018.3
20260902071444 22 237 0.0 0.0 0.00 0.00 0.00 89 1018.3
20260902070941 22 237 0.0 0.0 0.00 0.00 0.00 89 1018.4
20260902070437 22 238 0.0 1.6 0.00 0.00 0.00 88 1018.2
20260902065935 22 238 1.6 1.6 0.00 0.00 0.00 89 1018.2
20260902065430 22 238 0.0 1.6 0.00 0.00 0.00 89 1018.1
20260902064925 22 242 1.6 1.6 0.00 0.00 0.00 90 1018.2
20260902064421 22 242 1.6 1.6 0.00 0.00 0.00 91 1017.9
20260902063917 22 242 1.6 1.6 0.00 0.00 0.00 92 1018.1
20260902063416 22 242 0.0 0.0 0.00 0.00 0.00 93 1018.2
20260902062912 22 242 0.0 1.6 0.00 0.00 0.00 93 1018.3
20260902062411 21 242 0.0 0.0 0.00 0.00 0.00 93 1018.1
20260902061911 21 242 0.0 0.0 0.00 0.00 0.00 93 1018.2
20260902061406 21 242 0.0 0.0 0.00 0.00 0.00 92 1018.3
20260902060902 21 242 0.0 0.0 0.00 0.00 0.00 91 1018.4
20260902060358 21 242 0.0 0.0 0.00 0.00 0.00 90 1018.3